GFSNIL_sfc_wetblb_276.txt.gz
Wetbulb
59.51 57.98 57.72 55.41 56.42 55.23 54.28 54.67 56.18 55.53 56.20 55.70 56.03 56.47 55.59 55.50 54.78 55.00 54.63 53.60 53.73 53.34
58.45 58.15 57.41 58.07 57.66 54.57 55.76 53.01 53.89 54.85 54.78 55.53 55.20 55.97 55.42 53.85 54.05 53.92 53.59 52.72 53.54 53.33
57.90 56.65 56.87 56.95 55.76 55.61 54.96 54.82 54.10 54.04 54.22 53.79 53.89 55.26 55.33 53.66 52.74 52.13 52.77 51.68 52.51 52.84
55.70 55.61 56.24 55.47 54.91 55.01 55.16 54.36 53.52 53.63 53.87 54.29 54.45 55.18 54.22 53.42 52.03 49.72 50.27 51.02 51.20 51.48
55.13 55.64 56.22 55.82 55.22 55.60 54.57 54.25 53.30 52.76 52.56 52.80 52.81 52.25 51.42 49.49 48.86 48.08 48.30 50.08 50.77 50.47
55.42 56.71 56.18 56.27 55.66 55.28 53.82 53.11 52.91 52.36 51.65 51.74 51.97 49.18 48.64 47.95 47.47 46.96 47.51 49.25 50.08 50.12
56.16 55.93 56.04 56.41 54.70 53.93 54.10 53.28 52.97 52.79 52.39 52.18 50.16 47.63 46.33 45.72 45.58 46.00 47.29 49.50 49.98 50.08
55.99 56.85 55.96 55.66 55.24 54.99 54.66 53.94 53.48 52.30 52.18 50.95 49.06 46.90 45.58 45.57 45.15 45.76 47.60 49.07 49.30 48.78
55.23 55.34 55.64 55.61 55.49 54.99 54.47 53.67 53.14 52.35 52.13 50.20 47.95 45.36 45.32 45.74 44.77 46.53 47.42 46.68 47.41 47.98
54.70 54.09 55.30 55.02 54.47 54.09 54.37 54.26 53.26 52.59 52.54 50.12 50.84 44.36 44.00 44.86 44.96 47.27 47.02 46.06 46.27 46.32
53.79 53.15 53.81 54.22 54.20 54.17 54.85 53.79 52.79 52.20 52.39 49.51 51.07 44.71 43.16 43.70 45.48 47.42 47.09 45.66 45.47 44.67
52.68 52.46 52.44 52.34 53.35 54.01 53.66 53.51 52.48 52.92 52.07 51.68 51.12 44.20 42.81 42.97 46.27 46.44 46.00 45.88 45.30 45.24
53.44 53.30 52.47 53.18 53.73 54.30 53.52 51.58 52.42 51.52 52.24 51.68 51.95 43.09 42.43 42.77 45.04 43.33 42.96 43.60 44.04 45.15
54.47 54.31 53.93 54.49 54.59 53.41 52.64 51.73 51.41 51.64 52.39 51.64 50.03 46.30 42.62 42.48 43.73 42.32 41.94 42.17 42.13 43.18

GFSNIL_sfc_wetblb_279.txt.gz
Wetbulb
51.37 50.91 49.93 50.48 48.69 49.20 48.10 47.65 48.47 48.64 48.77 49.98 50.77 50.48 50.35 50.17 50.43 49.94 49.10 48.41 48.18 49.03
50.83 50.45 49.29 49.58 49.00 48.54 48.79 49.95 49.27 49.10 48.99 49.20 49.51 48.73 49.79 48.31 48.39 48.05 47.32 47.46 47.25 47.12
49.36 49.35 48.92 48.89 47.72 47.50 47.70 48.40 48.59 48.62 48.48 49.23 50.08 51.28 51.11 47.84 46.80 44.87 45.18 46.46 46.13 46.37
48.67 48.25 48.89 47.22 47.84 48.40 48.47 48.26 48.25 48.28 48.10 48.42 48.27 47.22 45.45 44.20 44.50 43.74 43.28 43.96 45.45 47.02
48.06 48.24 48.13 48.33 47.80 48.20 47.79 47.47 48.22 48.19 48.28 48.32 45.87 44.26 43.38 42.61 43.01 42.47 42.19 42.79 44.00 46.94
48.48 49.25 48.22 48.20 48.25 47.68 47.11 47.07 47.87 48.25 47.89 45.48 45.16 42.89 42.06 41.58 41.82 41.60 41.79 42.58 46.65 46.29
47.89 47.79 48.29 48.58 46.62 46.55 47.15 47.47 47.16 47.91 47.73 46.74 44.63 44.20 42.80 42.09 41.33 41.24 42.82 44.89 45.56 45.64
47.96 48.78 48.04 47.87 48.09 47.90 47.51 48.55 48.52 48.22 47.53 45.58 45.14 45.11 41.89 41.27 41.33 40.31 41.71 44.19 46.53 46.38
48.42 48.32 47.39 47.54 47.87 47.63 47.57 47.18 47.64 47.77 47.22 44.88 46.84 45.59 46.25 44.69 41.15 40.79 41.83 42.11 44.73 45.22
48.31 48.17 47.75 47.59 47.49 47.00 46.54 46.44 46.51 46.69 46.67 45.11 44.69 45.92 44.89 45.46 41.48 40.04 42.88 43.77 43.70 44.17
48.15 47.87 47.28 46.54 46.87 45.51 46.13 46.16 46.02 46.58 46.69 46.18 46.12 46.86 43.66 43.92 40.12 41.36 42.15 42.29 42.57 42.12
48.00 46.97 46.74 45.65 45.05 44.64 45.50 45.31 45.57 46.42 45.90 44.71 45.79 43.68 42.63 41.44 40.01 40.44 39.46 41.07 40.69 42.91
47.89 47.47 45.68 45.37 45.17 45.31 44.88 45.50 46.35 46.16 46.15 45.64 43.22 42.40 42.34 41.62 39.31 37.55 38.36 38.94 39.67 43.20
47.59 46.40 45.02 44.62 44.16 44.96 45.17 45.29 45.55 43.36 43.71 44.17 42.93 40.99 42.04 41.71 38.26 37.93 37.89 38.01 38.88 40.76

GFSNIL_sfc_wetblb_285.txt.gz
Wetbulb
48.11 47.59 46.59 45.87 45.71 45.55 44.32 44.55 45.39 46.06 45.97 46.28 46.89 46.13 45.65 45.60 44.77 43.79 43.02 41.48 41.53 41.24
47.15 46.67 46.40 45.85 44.87 44.32 44.25 46.86 46.94 45.61 44.97 45.92 44.46 43.74 42.83 41.45 40.97 40.21 40.07 39.84 40.15 39.52
46.82 46.43 46.24 45.09 44.55 44.57 45.16 45.34 45.35 45.08 44.99 44.35 43.60 42.31 39.82 38.49 39.38 38.80 38.50 39.89 39.21 39.35
45.85 46.32 45.30 44.74 45.52 45.34 44.99 44.60 44.74 45.42 45.40 44.15 42.71 41.70 39.06 38.63 39.71 38.76 38.55 39.28 40.36 40.95
45.70 46.31 45.33 45.03 45.33 45.55 44.77 44.38 44.78 45.84 45.77 44.54 43.63 41.89 40.15 39.88 39.73 39.26 38.97 39.56 39.91 41.10
45.96 46.49 45.64 45.94 45.36 45.60 44.51 44.35 44.74 45.40 45.26 44.54 44.47 42.99 41.67 41.43 41.10 40.51 39.43 39.37 39.70 40.71
46.38 45.68 45.06 45.73 46.22 44.98 44.74 44.25 44.67 45.18 45.22 45.70 45.26 44.43 43.47 44.22 42.77 42.13 40.17 40.19 40.45 41.39
46.45 45.28 45.22 46.17 45.46 45.20 45.50 45.67 45.01 45.25 45.31 45.08 45.15 45.56 43.46 43.62 43.07 42.04 41.79 39.33 40.88 42.20
45.65 46.48 45.73 44.28 44.86 44.69 44.44 44.06 44.39 44.58 44.39 43.94 45.47 46.52 47.54 47.00 41.10 40.99 38.37 38.19 39.50 39.47
46.90 46.19 44.98 44.64 45.02 43.06 42.10 41.63 42.03 42.62 42.61 42.49 42.19 45.42 44.92 45.65 39.24 38.16 37.75 37.76 37.15 38.00
45.71 44.92 44.26 43.38 42.74 41.76 41.05 40.97 41.40 41.33 42.14 41.04 42.65 43.63 42.86 43.40 37.92 37.21 37.77 37.54 37.22 38.69
45.06 44.44 44.20 43.04 41.21 41.47 40.69 40.32 40.19 42.19 41.71 39.27 39.40 42.66 42.22 41.23 37.36 37.21 36.54 37.55 39.65 40.17
44.77 44.96 43.69 41.76 41.56 40.22 39.73 40.45 42.78 42.55 40.72 42.17 39.08 41.37 41.62 40.80 37.56 35.48 36.12 39.27 40.08 41.54
44.93 43.77 42.97 41.53 40.63 40.29 39.46 40.78 39.86 41.71 40.42 40.12 39.75 39.15 41.05 41.63 37.82 35.88 37.25 38.81 39.27 40.82

GFSNIL_sfc_wetblb_291.txt.gz
Wetbulb
58.15 56.54 55.73 55.65 54.56 53.62 53.90 54.52 54.95 55.24 55.39 54.93 54.33 54.87 53.87 52.27 51.58 51.51 50.56 50.18 50.31 49.33
56.36 56.01 55.19 55.29 54.78 54.14 54.77 54.64 54.58 54.53 54.30 54.20 54.00 53.49 53.18 51.10 51.28 51.21 50.89 50.72 50.67 49.83
55.84 55.78 55.20 54.78 54.83 54.88 55.84 55.03 54.39 54.02 54.03 54.12 53.94 53.77 53.39 52.25 52.03 50.98 51.01 49.77 50.08 50.43
54.97 55.06 55.14 55.39 55.73 55.74 55.64 55.11 53.57 53.59 53.98 53.87 53.83 54.13 53.53 53.34 52.71 51.13 51.05 50.72 48.34 47.57
55.39 55.26 55.69 56.26 55.97 56.03 54.84 55.10 54.15 53.79 53.31 53.54 53.82 54.31 53.63 52.77 52.85 51.89 51.34 51.37 50.25 48.88
55.30 55.64 56.29 56.19 56.25 55.74 55.43 55.24 54.93 54.04 53.53 53.54 53.97 53.71 53.67 53.21 52.47 52.24 51.88 51.45 50.23 48.36
55.72 56.34 56.54 56.04 55.30 55.54 55.63 54.81 54.30 54.35 53.61 53.60 53.77 53.34 52.92 52.76 52.42 52.09 51.44 50.81 49.65 48.25
55.72 56.32 55.76 55.06 55.32 55.43 54.54 54.04 54.34 53.23 53.14 53.54 53.04 51.59 52.06 52.28 51.53 50.56 49.36 49.04 48.39 48.35
54.89 54.95 55.22 54.87 55.04 54.23 54.08 53.85 53.26 52.93 52.24 52.35 51.75 47.62 46.50 48.93 49.83 49.10 48.14 47.12 47.52 48.26
54.30 54.12 54.84 54.80 53.58 53.44 53.63 53.26 52.79 52.77 52.64 52.32 53.10 46.11 45.13 45.30 49.41 48.59 48.12 47.11 46.35 44.42
54.02 53.15 53.26 53.27 53.09 53.55 53.10 52.88 52.42 52.41 52.41 52.05 52.28 44.93 43.66 43.97 48.75 48.77 48.42 45.02 43.75 42.37
52.94 52.51 52.75 52.58 53.04 53.08 52.40 52.67 52.24 51.93 51.48 51.73 52.22 44.85 42.70 43.97 48.56 47.99 46.89 44.70 43.89 42.80
52.83 52.48 52.78 53.05 52.97 53.06 51.79 51.05 51.06 51.27 51.75 49.36 50.58 45.76 42.43 43.40 47.23 46.85 45.27 45.48 46.15 44.00
53.01 53.47 53.36 52.97 52.67 51.53 51.01 51.15 51.15 50.56 50.94 51.06 49.80 49.18 42.79 41.78 45.86 45.83 45.02 44.45 44.07 45.89